Regional Weather Roundup
Issued by NWS Albany, NY

Home | Current Version | Previous Version | Text Only | Print | Product List | Glossary On
Versions: 1 2 3 4 5 6 7 8 9 10 11 12 13 14 15 16 17 18 19 20 21 22 23 24 25 26 27 28 29 30 31 32 33 34 35 36 37 38 39 40 41 42 43 44 45 46 47 48 49 50
000
ASUS41 KALY 020210
RWRALY

NEW YORK STATE HOURLY WEATHER ROUNDUP
NATIONAL WEATHER SERVICE ALBANY NY
1000 PM EDT SAT AUG 01 2015

NOTE: "FAIR" INDICATES FEW OR NO CLOUDS BELOW 12,000 FEET WITH NO
SIGNIFICANT WEATHER AND/OR NO OBSTRUCTIONS TO VISIBILITY.

NYZ032-033-038>043-046>054-057>066-NYZ062>081-020300-
EAST


CITY           SKY/WX    TMP DP  RH WIND       PRES   REMARKS
ALBANY         CLEAR     72  54  53 CALM      29.85R
GLENS FALLS    CLEAR     64  54  69 CALM      29.82R
POUGHKEEPSIE   CLEAR     69  58  67 CALM      29.83R
NEWBURGH       CLEAR     72  59  64 W6        29.86R
MONTGOMERY     CLEAR     68  60  75 CALM      29.85R
WHITE PLAINS   CLEAR     74  58  57 NW6       29.85R
ISLIP          PTCLDY    76  59  55 NW6       29.82R
NEW YORK CITY  PTCLDY    81  58  45 NW9       29.84R
CENTRAL PARK   CLEAR     81  56  42 W3        29.87R
$$

NYZ005>009-017-018-044>046-055-056-020300-
CENTRAL


CITY           SKY/WX    TMP DP  RH WIND       PRES   REMARKS
FULTON         MOCLDY    61  58  90 SE3       29.86R
SYRACUSE       PTCLDY    68  57  68 CALM      29.85R
ROME           CLEAR     62  54  74 E3        29.87R
ELMIRA         CLEAR     63  55  75 SW5       29.89R
BINGHAMTON     CLEAR     67  52  58 NW3       29.91R
MONTICELLO     PTCLDY    64  55  72 CALM      29.92R
$$

NYZ026>034-041>043-020300-
NORTH


CITY           SKY/WX    TMP DP  RH WIND       PRES   REMARKS
WATERTOWN      PTCLDY    65  58  78 S6        29.83R
FORT DRUM      NOT AVBL
MASSENA        CLOUDY    61  57  87 S8        29.81F
SARANAC LAKE   CLOUDY    57  52  83 SW10      29.88R
PLATTSBURGH    MOCLDY    67  52  58 CALM      29.80R
$$

NYZ001>004-010>016-019>021-020300-
WEST


CITY           SKY/WX    TMP DP  RH WIND       PRES   REMARKS
BUFFALO        PTCLDY    70  57  63 SW10      29.87R
DUNKIRK        PTCLDY    67  60  78 S7        29.89S
JAMESTOWN      CLOUDY    64  54  68 W6        29.95R
WELLSVILLE     PTCLDY    63  49  60 W5        29.97R
ROCHESTER      PTCLDY    68  57  68 SW9       29.86R
PENN YAN       CLEAR     67  58  72 S7        29.89R
$$

             KEY
       WCI = WIND CHILL INDEX
       VSB = VISIBILITY
       HX  = HEAT INDEX
$$



USA.gov is the U.S. government's official web portal to all federal, state and local government web resources and services.